Погода в Робе

Австралия     37°09′50″S   139°45′15″E
темп.,
°C
ветер,
м/с
пор.,
м/с
влажн.,
%
обл.,
%
осадки,
мм/ч
давл.,
гПа
погр.,
м
9 декабря, чт
чт901:30+13ююв896487 0.3 10221403
04:30+13ююв81068100 0.3 10211152
07:30+14ююв895862 0.1 10221553
10:30+14ююв81066100 0.1 10231338
13:30+14ююв89620 0.1 10221158
16:30+15ююв9116416 0.1 10211171
19:30+14ююв911660 0.0 10211181
22:30+14ююв8107225 0.0 1022995
10 декабря, пт
пт1001:30+13ююв797899 0.1 1020864
04:30+13юв687970 0.1 1020767
07:30+14ююв8979100 0.3 1021822
10:30+15ююв897110 0.5 1021999
13:30+15ююв99665 0.0 1020944
16:30+15ююв1010675 0.0 1019918
19:30+14ююв1112705 0.0 1019868
22:30+13юв1012725 0.0 1020749
11 декабря, сб
сб1101:30+12юв711770 0.0 1019637
04:30+11вюв69820 0.0 1018452
07:30+12вюв69760 0.0 1019456
10:30+16ююв56600 0.0 1018477
13:30+15ю99710 0.0 1017325
16:30+16ююв910742 0.0 1016364
19:30+15ююв91179100 0.0 1015324
22:30+14юв7108164 0.0 1016255
12 декабря, вс
вс1201:30+13вюв5980100 0.0 1014170
04:30+13всв498188 0.0 1012172
07:30+15св47675 0.0 1013183
10:30+20сз33542 0.0 1013311
13:30+20з44580 0.0 1011305
16:30+20ю44611 0.0 1009153
19:30+19юв45615 0.0 100844
22:30+19в454874 0.0 100835
13 декабря, пн
пн1301:30+18всв595828 0.0 100690
04:30+18ссв345533 0.0 100541
07:30+17юз577959 0.0 1007126
10:30+16ююз81090100 0.0 1010485
13:30+16ююз81081100 0.0 1011617
16:30+16ююз8972100 0.0 1012726
19:30+15ю7873100 0.0 1014813
22:30+14ю7873100 0.0 1015756